< < Back
Terminal Aerodrome Forecast


Current Version              Previous Versions:   1  2  3  4  5  6  7  8  9  

Terminal Aerodrome Forecast

001
FTUS42 KFFC 190500 RRA
TAFMCN
TAF
KMCN 190543Z 1906/2006 00000KT 4SM BR BKN200
     FM191000 06003KT 3SM BR BKN007
     FM191400 07005KT P6SM BKN015
     FM191600 08007KT P6SM SCT035
     FM191800 10008KT P6SM BKN050
     FM200100 08005KT P6SM SCT060=

Latest METAR

508
SAUS80 KWBC 190500
MTRMCN
METAR KMCN 190453Z AUTO 00000KT 4SM BR CLR 18/18 A3000 RMK AO2 SLP154
T01830183 402780167 TSNO


USA.gov is the U.S. government's official web portal to all federal, state and local government web resources and services.